Location: Invercargill
(46.4000°S, 168.3500°E)
Time: 14:19:02
(UTC+12:00)

ISS - Visible Passes

Search period start: 01 July 2022 00:00
Search period end: 11 July 2022 00:00
Orbit: 414 x 420 km, 51.6° (Epoch: 30 June)

Date Brightness Start Highest point End Pass type
(mag) Time Alt. Az. Time Alt. Az. Time Alt. Az.
01 Jul -3.1 18:55:22 10° WSW 18:58:38 39° SSE 18:58:46 39° SSE visible
02 Jul -2.8 18:07:08 10° WSW 18:10:18 34° S 18:12:40 16° ESE visible
02 Jul -1.7 19:43:56 10° WSW 19:45:36 26° WSW 19:45:36 26° WSW visible
03 Jul -3.7 18:55:44 10° WSW 18:59:08 63° SSE 18:59:35 55° ESE visible
04 Jul -3.4 18:07:32 10° WSW 18:10:51 47° SSE 18:13:41 13° E visible
04 Jul -1.9 19:44:22 10° WSW 19:46:37 32° WNW 19:46:37 32° WNW visible
05 Jul -3.4 18:56:03 10° WSW 18:59:27 64° NNW 19:00:52 31° NE visible
06 Jul -3.8 18:07:47 10° WSW 18:11:13 85° SSE 18:14:37 10° ENE visible
06 Jul -1.2 19:45:15 10° W 19:47:36 18° NW 19:48:20 17° NNW visible
07 Jul -1.7 18:56:33 10° W 18:59:30 27° NW 19:02:26 10° NNE visible
08 Jul -2.4 18:08:04 10° WSW 18:11:21 43° NW 18:14:35 10° NE visible
09 Jul -0.4 18:58:06 10° WNW 18:59:18 12° NW 19:00:32 10° NNW visible
10 Jul -0.7 18:08:46 10° W 18:11:13 19° NW 18:13:39 10° N visible
